Location: Newark
(32.9900°N, 111.5400°W)
Time: 02:38:09
(UTC+00:00)

N. Korean satellite - Pass Details

Date: 25 November 2019
Orbit: 455 x 507 km, 97.2° (Epoch: 14 December)

Event Time Altitude Azimuth Distance (km) Brightness Sun altitude
Rises 13:02:37 0° 15° (NNE) 2,585 10.2 -13.2°
Reaches altitude 10° 13:04:44 10° 18° (NNE) 1,690 9.3 -12.8°
Maximum altitude 13:08:20 62° 100° (E) 549 7.1 -12.1°
Drops below altitude 10° 13:11:51 10° 182° (S) 1,649 9.5 -11.4°
Sets 13:13:54 0° 186° (S) 2,514 10.4 -11.0°
